Hourly Data Report for March 14, 2013

GASPE A
QUEBEC

48°46'31.000" N
64°28'47.000" W
34.10 m
7052601
71188
YGP

Download Data

Hourly Data (March 2013)
Hourly Data Report for March 14, 2013
TIME
LST
Temp Definition
°C
Dew Point Definition
°C
Rel Hum Definition
%
Precip. Amount Definition
mm

Wind Dir Definition
10's deg

Wind Spd Definition
km/h
Visibility Definition
km
Stn Press Definition
kPa
Hmdx Definition


Wind Chill Definition


Weather Definition


00:00 4.2 3.5 95   6 21 12.9 99.45     Rain
01:00 3.8 3.1 95   7 21 24.1 99.40     Rain
02:00 3.7 3.1 96   11 17 24.1 99.31     Rain
03:00 3.0 2.4 96   8 18 24.1 99.17     Rain
04:00 2.8 2.4 97   7 10 24.1 99.15     Cloudy
05:00 2.4 2.1 98     0 24.1 99.11     LegendNANA
06:00 1.5 1.4 99     0 3.2 99.09     Drizzle, Fog
07:00 0.9 0.9 100   8 5 0.8 99.12     Drizzle, Fog
08:00 1.5 1.5 100   10 5 0.8 99.10     Drizzle, Fog
09:00 2.1 2.1 100   12 6 0.8 99.06     Drizzle, Fog
10:00 2.2 2.1 99   8 7 0.8 99.02     Drizzle, Fog
11:00 2.5 2.1 97   9 12 1.6 99.01     Fog
12:00 2.0 1.7 98   8 17 4.8 98.98     Fog
13:00 2.3 1.4 94   7 20 16.1 98.96     Rain
14:00 1.7 1.1 96   7 18 16.1 99.01     LegendNANA
15:00 0.6 0.3 98   7 14 1.2 99.08     Fog
16:00 1.5 0.8 95   16 4 24.1 99.13     Mostly Cloudy
17:00 1.8 -0.5 85   28 12 24.1 99.21     LegendNANA
18:00 0.7 -4.2 70   27 29 24.1 99.36     LegendNANA
19:00 -0.2 -4.8 71   28 22 24.1 99.48   -6 Cloudy
20:00 -0.9 -5.1 73   28 14 24.1 99.48   -5 LegendNANA
21:00 -1.8 -5.0 79   30 8 24.1 99.53   -5 LegendNANA
22:00 -2.3 -5.8 77   27 15 24.1 99.54   -7 Clear
23:00 -2.7 -5.9 79   29 11 24.1 99.54   -7 LegendNANA

Notes on Data Quality.

Legend

  • E = Estimated
  • M = Missing
  • NA = Not Available*
  • [empty] = Indicates an unobserved value
Date modified: